NOAA 17 DEB

Satellite information

Favourite Embed

Satellite Type and Status

DEBRISIN ORBIT

Key statistics

Satellite NOAA 17 DEB at a glance.

Uptime

8474

Days in orbit

Revolutions

≈ 14.5

Per day

Orbit

SSO

Sun Synchronous Orbit

Inclination

98.8

Latest

Satellite identification and parameters

Extended collection of information and parameters for NOAA 17 DEB.

Object identification

Identified? True

Debris? True

Object name: NOAA 17 DEB

International designator: 2002-032BG

Object number (NORAD): 48723

Object ID (CCSDS): 48723

Country: UNITED STATES OF AMERICA (US)

Current information (Y/N): Y

RCS size: SMALL

Orbital parameters

Period: 99.619 minutes

Inclination: 98.7951 deg

SMA: 7118.483 km

Apoapsis: 758.035 km

Periapsis: 722.661 km

RAAN: 222.8093 deg

Eccentricy: 0.00248472

Argument of periapsis: 27.9893 deg

Mean anomaly: 332.2628 deg

Mean motion: 14.45511594 rev/day

Mean motion (dot): 0.00010585 rev/day2

B* drag term: 0.0029994659 1/REarth

Two-line elements (TLE)

Creation date: Sept. 4, 2025, 10:13 a.m.

Reference frame: TEME

Reference center: EARTH

Epoch: Sept. 4, 2025, 4:35 a.m. UTC

TLE line 0: 0 NOAA 17 DEB

TLE line 1: 1 48723U 02032BG 25247.19103065 .00010585 00000-0 29995-2 0 9991

TLE line 2: 2 48723 98.7951 222.8093 0024847 27.9893 332.2628 14.45511594233063

Live tracking on map

Real-time ground track for satellite NOAA 17 DEB.

In-orbit conjunctions

A list of the most updated potential collisions computed for object NOAA 17 DEB.

Target Orbit TCA Probability of collision Miss distance Type
FENGYUN 1C DEB SSO 2025-08-28 17:52:12 0.0001164769 101.0 (m) DEBRIS
COSMOS 2251 DEB LEO 2024-09-26 20:27:50 0.0001985613 866.0 (m) DEBRIS
FENGYUN 1C DEB SSO 2024-09-26 16:05:24 0.0003369486 681.0 (m) DEBRIS
RITE TARGET 1 SSO 2024-07-26 12:50:39 0.0006558226 187.0 (m) PAYLOAD

Associated space launch

NOAA M carried weather imagers and microwave and infrared sounders, as well as a SARSAT search-and-rescue package. It had an on-orbit mass of 1475 kg.

NOAA 17 DEB was lifted into orbit during the mission ‘Titan II SLV | NOAA 17’, on board a Titan II SLV space rocket.

The launch took place on June 24, 2002, 6:23 p.m. from Space Launch Complex 4W.

For more information about the launch, click the button.

Launch to space Titan II SLV | NOAA 17
Titan II SLV | NOAA 17

Agency: N/A

Status: Launch Successful

Launch date: June 24, 2002, 6:23 p.m. UTC

Rocket: Titan II SLV

Launch pad: Space Launch Complex 4W

Location: Vandenberg SFB, CA, USA

...

Latest news about this satellite

There are no fresh news available about this satellite. Check back as we update our databases every day.


Newsletter sign-up

Weekly statistics, charts and insights to help you stay on top of the space industry.